Location: Aranbee
(34.0885°N, 118.2342°W)
Time: 22:27:57
(UTC+00:00)

Courier 1B - All Passes

Search period start: 25 November 2020 00:00
Search period end: 05 December 2020 00:00
Orbit: 962 x 1209 km, 28.3° (Epoch: 25 November)

Date Brightness Start Highest point End Pass type
(mag) Time Alt. Az. Time Alt. Az. Time Alt. Az.
25 Nov - 06:17:54 10° SW 06:23:43 29° SSE 06:29:52 10° E night (unlit)
25 Nov - 08:10:26 10° WSW 08:17:22 51° S 08:24:43 10° E night (unlit)
25 Nov - 10:04:06 10° W 10:11:22 55° S 10:18:58 10° ESE visible
25 Nov - 11:58:26 10° W 12:05:19 36° SSW 12:12:20 10° SE visible
25 Nov - 13:54:46 10° WSW 13:58:53 15° SSW 14:02:59 10° S visible
26 Nov - 05:25:00 10° SSW 05:30:06 22° SSE 05:35:26 10° ESE night (unlit)
26 Nov - 07:16:55 10° WSW 07:23:34 46° SSE 07:30:39 10° E night (unlit)
26 Nov - 09:10:22 10° WSW 09:17:30 56° S 09:25:01 10° ESE night (unlit)
26 Nov - 11:04:27 10° W 11:11:29 42° SSW 11:18:44 10° SE visible
26 Nov - 12:59:49 10° WSW 13:05:09 20° SSW 13:10:31 10° SSE visible
27 Nov - 04:32:28 10° S 04:36:31 17° SSE 04:40:42 10° ESE visible
27 Nov - 06:23:31 10° SW 06:29:51 39° SSE 06:36:33 10° E night (unlit)
27 Nov - 08:16:41 10° WSW 08:23:39 56° S 08:31:02 10° ESE night (unlit)
27 Nov - 10:10:34 10° W 10:17:37 47° SSW 10:24:59 10° ESE visible
27 Nov - 12:05:22 10° WSW 12:11:23 25° SSW 12:17:32 10° SSE visible
28 Nov - 03:40:50 10° SSE 03:42:59 12° SSE 03:45:09 10° SE visible
28 Nov - 05:30:17 10° SW 05:36:10 33° SSE 05:42:24 10° E night (unlit)
28 Nov - 07:23:05 10° WSW 07:29:50 53° S 07:37:02 10° E night (unlit)
28 Nov - 09:16:47 10° W 09:23:47 51° S 09:31:10 10° ESE night (unlit)
28 Nov - 11:11:11 10° W 11:17:37 31° SSW 11:24:14 10° SE visible
28 Nov - 13:08:55 10° SW 13:11:08 11° SSW 13:13:22 10° SSW visible
29 Nov - 04:37:13 10° SSW 04:42:34 26° SSE 04:48:09 10° ESE visible
29 Nov - 06:29:33 10° WSW 06:36:03 49° S 06:43:00 10° E night (unlit)
29 Nov - 08:23:04 10° W 08:29:57 54° S 08:37:15 10° ESE night (unlit)
29 Nov - 10:17:12 10° W 10:23:49 36° SSW 10:30:44 10° SE visible
29 Nov - 12:13:09 10° WSW 12:17:24 16° SSW 12:21:44 10° S visible
30 Nov - 03:44:24 10° SSW 03:49:00 20° SSE 03:53:44 10° ESE visible
30 Nov - 05:36:06 10° SW 05:42:22 43° SSE 05:48:59 10° E night (unlit)
30 Nov - 07:29:24 10° WSW 07:36:09 55° S 07:43:18 10° ESE night (unlit)
30 Nov - 09:23:19 10° W 09:30:01 42° SSW 09:37:05 10° SE night (unlit)
30 Nov - 11:18:26 10° WSW 11:23:40 20° SSW 11:29:03 10° SSE visible
01 Dec - 02:52:02 10° S 02:55:28 15° SSE 02:58:57 10° ESE visible
01 Dec - 04:42:46 10° SW 04:48:43 36° SSE 04:54:56 10° E visible
01 Dec - 06:35:48 10° WSW 06:42:22 54° S 06:49:21 10° ESE night (unlit)
01 Dec - 08:29:33 10° W 08:36:13 47° S 08:43:18 10° ESE night (unlit)
01 Dec - 10:24:08 10° WSW 10:29:56 25° SSW 10:35:58 10° SSE visible
02 Dec - 02:01:31 10° SSE 02:01:57 10° SSE 02:02:23 10° SE visible
02 Dec - 03:49:33 10° SW 03:55:06 30° SSE 04:00:51 10° E visible
02 Dec - 05:42:15 10° WSW 05:48:38 51° S 05:55:24 10° E night (unlit)
02 Dec - 07:35:51 10° W 07:42:27 51° S 07:49:28 10° ESE night (unlit)
02 Dec - 09:30:05 10° W 09:36:11 31° SSW 09:42:36 10° SE night (unlit)
02 Dec - 11:27:22 10° SW 11:29:42 12° SSW 11:32:05 10° SSW visible
03 Dec - 02:56:31 10° SSW 03:01:32 24° SSE 03:06:40 10° ESE visible
03 Dec - 04:48:45 10° WSW 04:54:57 46° S 05:01:27 10° E visible
03 Dec - 06:42:12 10° WSW 06:48:42 53° S 06:55:36 10° ESE night (unlit)
03 Dec - 08:36:12 10° W 08:42:27 36° SSW 08:49:04 10° SE night (unlit)
03 Dec - 10:31:54 10° WSW 10:36:00 16° SSW 10:40:13 10° S visible
04 Dec - 02:03:44 10° SSW 02:08:00 18° SSE 02:12:17 10° ESE visible
04 Dec - 03:55:19 10° SW 04:01:19 40° SSE 04:07:31 10° E visible
04 Dec - 05:48:34 10° WSW 05:54:58 54° S 06:01:43 10° ESE night (unlit)
04 Dec - 07:42:24 10° W 07:48:44 41° SSW 07:55:26 10° SE night (unlit)
04 Dec - 09:37:20 10° WSW 09:42:18 20° SSW 09:47:28 10° SSE night (unlit)
